Regional Weather Roundup
Issued by NWS

Home | Current Version | Previous Version | Graphics & Text | Print | Product List | Glossary On
Versions: 1 2 3 4 5 6 7 8 9 10 11 12 13 14 15 16 17 18 19 20 21 22 23 24 25 26 27 28 29 30 31 32 33 34 35 36 37 38 39 40 41 42 43 44 45 46 47 48 49 50
000
ASUS43 KMPX 180501
RWRMN
WEATHER ROUNDUP FOR MINNESOTA
NATIONAL WEATHER SERVICE TWIN CITIES/CHANHASSEN MN
1100 PM CST FRI NOV 17 2017


NOTE: "FAIR" INDICATES FEW OR NO CLOUDS BELOW 12,000 FEET WITH NO
SIGNIFICANT WEATHER AND/OR OBSTRUCTIONS TO VISIBILITY. N/A MEANS
CURRENT SKY AND/OR WEATHER CONDITIONS ARE NOT AVAILABLE.

MNZ060>063-068>070-180600-
   Twin Cities Metro

CITY           SKY/WX    TMP DP  RH WIND       PRES   REMARKS
TWIN CITIES    CLOUDY    37  36  96 N8        29.65F
ST PAUL        CLOUDY    37  35  92 NW6       29.67F
CRYSTAL        CLOUDY    36  32  85 N7        29.65F
BLAINE         CLOUDY    37  37 100 N5        29.66F FOG
LAKEVILLE      CLOUDY    36  36 100 N7        29.64F FOG
EDEN PRAIRIE   CLOUDY    37  35  92 N5        29.64F FOG
SOUTH ST PAUL  CLOUDY    37  37 100 N6        29.65F
LAKE ELMO      CLOUDY    36  36 100 NE6       29.64F FOG
$$
MNZ001>005-007-008-013>017-022>024-027-028-180600-
   Northwest Minnesota

CITY           SKY/WX    TMP DP  RH WIND       PRES   REMARKS
BEMIDJI        CLOUDY    21  17  83 NW9       29.74S WCI  11
HALLOCK        CLOUDY    10   9  92 CALM      29.80S
ROSEAU         CLOUDY    16  10  79 W5        29.77S WCI   9
WARROAD        CLOUDY    14  10  85 NW5       29.77S WCI   6
CROOKSTON      CLOUDY    18  16  93 N5        29.82R WCI  11
FOSSTON        CLOUDY    18  16  93 NW5       29.77R WCI  11
DETROIT LAKES  CLOUDY    23  19  86 N9        29.77R WCI  13
MOORHEAD       CLOUDY    21  16  79 N5        29.80F WCI  15
PARK RAPIDS    CLOUDY    26  21  81 NW8       29.72R WCI  18
MAHNOMEN       FAIR      20  17  86 NW6       29.78R WCI  12
$$
MNZ006-009>011-018-025>026-180600-
   North Central Minnesota

CITY           SKY/WX    TMP DP  RH WIND       PRES   REMARKS
BAUDETTE       CLOUDY    18  14  84 W8        29.74S WCI   8
FLAG ISLAND    CLEAR     16  12  86 W9        29.75S WCI   4
INTL FALLS     CLOUDY    22  16  78 NW7       29.71S HAZE    WCI  13
WASKISH        CLOUDY    19  18  93 NW6       29.75R WCI  11
BIG FORK       CLOUDY    25  19  80 CALM      29.71R
LONGVILLE      CLOUDY    28  23  80 N3        29.71S
GRAND RAPIDS   CLOUDY    28  26  92 NW7       29.71R WCI  21
CRANE LAKE     CLOUDY    27  25  93 CALM      29.71R
ORR            CLOUDY    23  19  86 NW3       29.66S
COOK           CLOUDY    27  25  93 NW3       29.68S
WALKER         FAIR      24  18  77 NW7       29.72S WCI  16
$$
MNZ012-019>021-037-180600-
   Northeast Minnesota

CITY           SKY/WX    TMP DP  RH WIND       PRES   REMARKS
DULUTH         CLOUDY    32  31  96 NW7       29.63S WCI  26
ELY            CLOUDY    30  28  93 CALM      29.65R
HIBBING        CLOUDY    29  26  89 N10       29.68R WCI  20
EVELETH        CLOUDY    32  27  80 NW7       29.67R WCI  26
DULUTH HARBOR  CLOUDY    34  32  93 W3        29.67R FOG
TWO HARBORS    CLOUDY    34  28  80 CALM      29.63S HAZE
SILVER BAY     CLOUDY    32  32 100 CALM      29.63R FOG
GRAND MARAIS     N/A     35  32  88 CALM      29.65R
G MARAIS ARPRT CLOUDY    28  25  86 NW14G21   29.60R WCI  17
$$
MNZ029>031-032-039>041-046>048-054>057-064-180600-
   West Central Minnesota

CITY           SKY/WX    TMP DP  RH WIND       PRES   REMARKS
FERGUS FALLS   CLOUDY    25  18  74 N10       29.79R WCI  15
WHEATON        CLOUDY    27  19  74 NW12      29.79F WCI  16
MORRIS         CLOUDY    28  21  74 NW17      29.74S WCI  16
ALEXANDRIA     CLOUDY    30  25  81 NW9       29.73R WCI  22
ELBOW LAKE     FAIR      26  20  80 W14       29.76R WCI  14
WADENA         CLOUDY    27  23  86 NW7       29.73R WCI  19
GLENWOOD       CLOUDY    30  28  93 NW10      29.73R WCI  21
APPLETON         N/A     32  25  74 NW12      29.74S WCI  23
BENSON         CLOUDY    30  25  80 N16       29.75R WCI  19
ORTONVILLE     CLOUDY    28  23  80 MISG      29.74F
MADISON        MOCLDY    34  28  80 NW12      29.73F WCI  25
WILLMAR        FAIR      34  34 100 NW8       29.73R WCI  27
$$
MNZ033>034-036-042>043-049>051-058-059-180600-
   Central Minnesota

CITY           SKY/WX    TMP DP  RH WIND       PRES   REMARKS
ST CLOUD       CLOUDY    33  33 100 CALM      29.68R FOG
SAUK CENTRE    FAIR      32  30  92 NW9       29.70R WCI  24
PAYNESVILLE    CLOUDY    33  33  98 NW5       29.70R WCI  29
AITKIN         CLOUDY    28  27  93 N5        29.67S WCI  23
PINE RIVER     CLOUDY    28  23  80 N7        29.75R WCI  21
BRAINERD       CLOUDY    33  29  85 N5        29.69F WCI  29
STAPLES        CLOUDY    28  27  93 NW8       29.72R WCI  20
LONG PRAIRIE   CLOUDY    32  30  93 NW7       29.69F WCI  26
LITTLE FALLS   CLOUDY    32  30  93 NW3       29.70R
LITCHFIELD     CLOUDY    36  36 100 NW3       29.69R
BUFFALO        CLOUDY    35  33  92 CALM      29.68R FOG
MAPLE LAKE     CLOUDY    34  34  98 NW3       29.68S FOG
HUTCHINSON     CLOUDY    34  33  96 NW6       29.69S FOG     WCI  29
$$
MNZ037-044-045-052-053-180600-
   East Central Minnesota

CITY           SKY/WX    TMP DP  RH WIND       PRES   REMARKS
PRINCETON      FOG       34  34 100 W3        29.69R VSB 1/4
MORA           FOG       32  32 100 CALM      29.69S VSB 1
CAMBRIDGE      FOG       36  36 100 NW3       29.67F VSB 1/2
RUSH CITY      CLOUDY    32  31  97 CALM      29.66F FOG
MOOSE LAKE     CLOUDY    32  32 100 CALM      29.65S FOG
HINCKLEY       FAIR      32  32 100 CALM      29.68R FOG
CLOQUET        CLOUDY    32  30  93 NW8       29.64F FOG     WCI  25
MCGREGOR       CLOUDY    32  32 100 N9        29.67F WCI  24
$$
MNZ071>073-080-081-089-090-097-098-180600-
   Southwest Minnesota

CITY           SKY/WX    TMP DP  RH WIND       PRES   REMARKS
MONTEVIDEO     CLOUDY    30  27  86 N12       29.73S WCI  21
GRANITE FALLS  CLOUDY    34  30  85 NW10      29.74R WCI  26
CANBY          CLOUDY    33  28  83 W12       29.75F WCI  24
MARSHALL       CLOUDY    33  27  78 N15       29.73R WCI  23
REDWOOD FALLS  CLOUDY    36  31  82 NW10      29.71R
OLIVIA         CLOUDY    34  32  93 NW9       29.72R WCI  26
PIPESTONE      CLOUDY    34  28  80 N9        29.69R WCI  26
WINDOM         CLOUDY    36  23  60 NW15      29.67S
WORTHINGTON    CLOUDY    34  32  92 N14       29.68R WCI  25
JACKSON        MOCLDY    34  32  93 N7        29.66R WCI  28
SLAYTON        CLOUDY    33  31  91 N14G20    29.70R WCI  24
$$
MNZ065>067-074>077-082>085-091>093-180600-
   South Central Minnesota

CITY           SKY/WX    TMP DP  RH WIND       PRES   REMARKS
MANKATO        CLOUDY    36  34  92 N8        29.66S FOG
NEW ULM        MOCLDY    36  34  93 CALM      29.68R
ST JAMES       MOCLDY    34  34 100 NW6       29.68R WCI  29
FAIRMONT       CLOUDY    37  35  92 N15       29.64R
GLENCOE        CLOUDY    36  37 100 NW7       29.66R FOG
FARIBAULT      CLOUDY    37  36  93 N5        29.64F FOG
OWATONNA       CLOUDY    37  36  93 N7        29.64F FOG
WASECA         CLOUDY    36  36 100 N8        29.65F FOG
ALBERT LEA     CLOUDY    36  36 100 N12       29.61F FOG
$$
MNZ078>079-086>088-094>096-180600-
   Southeast Minnesota

CITY           SKY/WX    TMP DP  RH WIND       PRES   REMARKS
ROCHESTER      CLOUDY    36  36 100 N12       29.64R
RED WING       MOCLDY    37  34  87 CALM      29.64R FOG
STANTON        CLOUDY    37  36  93 N6        29.63S FOG
DODGE CENTER   CLOUDY    36  36 100 N8        29.64R FOG
WINONA         CLOUDY    36  36 100 CALM      29.61F FOG
AUSTIN         CLOUDY    36  36 100 N9        29.60F FOG
PRESTON        CLOUDY    36  35  96 N10       29.63R FOG
$$
ABBREVIATIONS USED IN REMARKS
   TC - TEMPERATURES IN CELSIUS
  WCI - WIND CHILL INDEX
   HX - HEAT INDEX
  VSB - VISIBILITY
$$



USA.gov is the U.S. government's official web portal to all federal, state and local government web resources and services.